Temperature
12 12 13 13 12 11 12 13 14 15 16 17 18 18 17 17 17 17 17 17 17 16 16 16 16 16 16 16 16 16 16 16 16 16 16 16 16 16 16 16 16 16 16 16 16 16 16 16 16
11 12 12 12 11 11 12 13 14 15 17 17 17 17 17 16 16 16 16 16 16 16 16 16 16 16 16 16 16 16 16 16 16 16 16 16 16 16 16 16 16 17 17 17 17 17 16 16 16
11 11 12 11 11 12 12 13 14 16 17 17 16 17 17 16 16 16 16 16 16 16 16 16 16 16 16 16 16 16 16 16 16 16 16 16 16 16 17 17 17 17 17 17 17 17 16 16 16
10 11 11 10 11 12 13 14 14 15 16 16 16 16 16 17 16 16 16 16 16 16 16 16 16 16 16 16 16 16 16 16 16 17 16 16 17 17 17 17 17 17 17 17 17 17 16 16 16
10 10 10 10 11 12 12 14 15 15 15 16 16 15 16 16 17 16 16 16 16 16 15 15 16 16 16 16 16 16 16 16 16 16 16 17 17 17 17 17 17 17 17 17 17 17 16 16 16
9 9 9 10 11 12 12 14 15 14 15 15 16 15 15 16 16 16 16 16 16 16 15 15 15 16 16 16 16 16 16 16 17 17 17 17 17 17 17 17 17 17 17 17 17 17 16 16 16
9 8 9 10 11 12 13 14 14 14 14 15 16 15 15 15 16 16 16 15 15 15 15 15 15 15 16 16 16 16 16 16 17 17 17 17 17 17 17 17 17 17 17 17 17 16 16 16 16
9 8 9 10 11 12 13 14 15 15 15 16 16 15 15 15 16 16 15 15 15 15 15 15 15 15 15 15 16 16 16 16 16 17 17 17 17 17 17 17 17 17 17 16 16 16 16 16 16
8 8 9 10 11 12 13 13 14 15 15 15 16 16 16 16 15 15 15 15 15 15 15 15 15 15 15 15 15 16 16 16 16 17 17 17 17 17 17 17 17 17 16 16 16 16 16 16 16
8 8 9 11 11 12 12 13 13 14 14 14 15 15 15 15 15 15 15 14 14 15 15 15 15 15 15 15 15 15 16 16 16 17 17 17 17 17 17 17 16 16 16 16 16 16 16 15 15
7 8 9 10 11 12 12 12 13 13 13 14 14 15 15 14 15 15 15 15 15 15 15 15 15 15 15 15 15 15 16 16 16 16 16 16 16 16 16 16 16 16 16 16 16 15 15 15 15
7 8 9 10 11 11 12 12 12 12 13 14 14 15 15 15 15 15 15 15 15 15 15 15 15 15 15 15 15 15 15 16 16 16 16 16 16 16 16 16 16 16 16 15 15 15 15 15 14
7 8 9 9 10 10 11 11 11 12 12 14 14 14 15 15 15 15 15 15 15 15 15 15 15 15 15 15 15 15 15 16 16 16 16 16 16 16 16 16 15 15 15 15 15 15 14 14 14
7 8 8 9 9 10 10 11 11 11 12 13 14 14 14 15 15 14 14 15 15 15 15 15 15 15 15 15 15 15 15 15 15 15 15 15 15 15 15 15 15 15 15 14 14 14 14 14 14
7 7 8 8 9 9 10 10 11 11 12 12 13 13 14 14 14 14 15 15 15 15 15 15 15 15 15 15 15 15 15 15 15 15 15 15 15 15 15 14 14 14 14 14 14 14 14 14 13
7 7 7 8 9 9 10 10 10 11 11 11 12 13 14 14 14 14 14 15 15 15 15 15 15 15 15 15 15 15 15 15 15 15 15 14 14 14 14 14 14 14 14 14 14 14 13 13 13
6 6 7 8 8 9 9 9 10 10 11 11 11 12 13 14 14 14 14 14 14 14 15 15 15 15 15 16 15 15 15 15 14 14 14 14 14 14 14 14 14 14 14 14 13 13 13 13 13
6 6 7 7 8 8 8 9 10 10 10 10 11 12 13 13 13 14 14 14 14 14 14 14 15 15 15 15 15 15 14 14 14 14 14 14 14 14 14 14 13 13 13 13 13 13 13 13 13
6 6 7 7 8 8 8 9 9 10 10 10 10 11 12 13 14 14 14 14 14 14 14 14 14 15 15 15 15 15 15 14 14 14 14 14 14 14 13 13 13 13 13 13 13 13 13 13 13
6 7 7 7 8 9 8 9 9 9 9 10 10 11 12 13 13 14 14 14 14 14 14 14 14 14 14 15 15 14 14 14 14 14 14 14 14 13 13 13 13 13 13 13 13 13 13 13 12
7 7 7 7 8 8 8 8 9 9 9 10 11 11 12 13 14 14 14 14 14 14 14 14 14 14 14 14 14 14 14 14 14 14 14 14 13 13 13 13 13 13 13 13 13 13 12 12 12
7 7 8 8 8 7 8 8 8 9 9 9 10 11 13 13 14 14 14 14 14 14 14 14 14 14 14 14 14 14 14 14 14 14 14 14 14 13 13 13 13 13 13 13 13 12 12 12 12
7 7 8 8 7 7 8 8 8 8 9 10 10 11 13 13 14 14 15 15 15 15 15 14 14 14 14 14 14 13 13 14 14 14 14 14 14 14 13 13 13 13 13 12 12 12 12 12 11
7 7 7 7 7 7 8 8 8 8 9 10 10 11 12 13 14 14 15 15 15 15 14 14 14 14 14 14 14 14 14 14 14 14 14 13 13 13 13 13 13 13 12 12 12 12 12 11 11
7 7 7 7 7 7 8 8 8 9 9 9 10 11 12 13 14 14 15 15 15 15 15 14 14 14 14 14 14 14 14 13 14 13 13 13 13 13 13 13 12 12 12 12 12 12 11 11 11
7 7 7 7 7 7 7 7 8 9 9 9 10 11 12 12 13 14 14 14 15 15 15 14 14 14 14 14 14 14 14 13 13 13 13 13 13 12 12 12 12 12 12 12 11 11 11 10 10
7 6 7 6 7 7 7 7 8 9 9 8 9 10 11 12 13 13 14 14 14 14 14 14 14 14 14 13 13 13 13 13 13 13 13 13 12 12 12 12 12 11 11 11 11 10 10 10 9
7 6 6 6 7 7 8 7 7 9 8 8 7 9 10 11 12 12 13 13 14 14 14 14 14 13 13 13 13 13 13 13 12 12 12 12 12 12 11 11 11 11 11 10 10 10 10 9 9
7 7 6 6 6 7 7 8 8 8 8 7 7 8 10 11 11 12 12 13 13 13 13 13 13 13 13 13 12 12 12 12 12 12 12 12 11 11 11 11 11 10 10 10 10 9 9 9 8
7 7 6 6 6 5 6 7 8 7 7 7 7 9 10 10 11 11 12 12 12 12 12 12 12 12 12 12 12 12 12 11 11 11 11 11 11 10 10 10 10 10 9 9 9 8 8 8 7
Wind_Speed
8 7 1 2 3 3 8 7 5 5 5 3 2 3 5 4 4 3 1 8 14 14 17 21 20 19 18 17 17 16 15 15 16 17 18 19 19 19 19 19 18 18 18 18 17 17 16 15 14
4 2 2 2 5 8 7 7 7 7 6 3 1 2 3 1 2 4 6 8 14 14 17 19 20 19 18 18 17 16 16 16 16 17 17 18 19 19 18 18 18 18 17 17 16 16 15 14 13
3 0 2 3 7 11 8 7 10 6 4 3 1 1 3 2 3 4 6 13 12 12 15 19 20 19 19 18 17 17 16 16 16 17 17 17 18 18 18 17 17 17 16 16 15 14 13 12 12
1 1 2 6 12 10 8 5 6 5 2 2 4 0 0 1 3 5 11 13 12 10 15 19 20 19 19 18 17 17 17 16 16 17 17 17 17 17 17 16 16 15 15 14 14 13 12 12 11
2 2 6 9 12 7 8 7 5 6 6 5 6 4 1 2 5 12 13 13 12 10 14 18 19 19 18 18 17 17 17 17 16 17 17 17 16 16 16 15 15 14 14 13 12 11 11 10 10
1 2 7 12 11 9 8 7 4 5 4 4 5 5 1 3 9 13 12 11 10 11 12 16 19 18 18 18 17 17 17 17 16 16 16 16 16 15 15 14 13 13 12 11 10 10 9 9 8
3 4 7 9 10 10 10 6 6 6 6 7 6 6 3 4 7 12 11 9 9 10 10 11 15 16 17 17 17 16 16 16 16 16 15 15 15 15 14 13 12 11 10 9 9 8 7 7 6
3 4 6 7 9 10 7 5 5 7 7 5 5 7 7 7 10 11 11 9 9 9 9 9 12 12 13 14 16 16 15 15 15 15 15 14 14 13 12 11 10 9 8 7 6 5 5 5 5
2 4 8 8 8 7 5 4 3 2 3 3 3 3 6 13 13 12 10 7 8 10 8 9 9 10 11 12 14 15 15 15 15 14 14 13 11 10 9 9 8 7 6 5 4 3 3 3 4
4 6 9 5 4 4 4 4 3 1 3 3 2 3 9 15 15 14 13 11 10 10 9 9 9 9 10 10 11 12 12 12 13 13 12 11 9 8 7 7 6 5 4 3 2 2 2 3 3
4 6 5 5 4 3 2 2 1 3 5 5 6 9 13 15 15 14 13 13 11 10 9 9 9 9 9 7 9 9 9 10 11 12 11 10 8 6 5 4 4 3 2 1 1 2 2 2 3
4 5 5 5 4 3 3 2 2 3 5 3 6 11 15 17 16 16 13 12 11 10 10 10 10 9 9 9 8 8 8 8 8 10 11 9 6 4 4 4 3 3 2 1 1 1 2 3 4
5 5 6 5 4 4 2 3 2 4 6 3 3 9 13 15 14 13 13 11 10 10 10 11 10 10 9 8 7 8 7 8 9 10 10 10 6 4 4 4 4 4 3 3 2 2 2 3 4
3 3 5 4 4 3 3 4 2 3 5 1 3 9 11 12 13 12 13 12 12 12 12 11 11 11 9 7 6 7 8 9 9 9 11 12 9 7 5 4 4 4 5 4 3 3 2 2 3
2 3 4 3 3 2 1 4 5 3 4 2 1 5 9 10 12 13 15 14 13 12 11 11 12 11 11 9 8 8 9 10 8 9 11 12 11 9 7 4 3 5 5 4 3 2 2 2 2
1 2 2 2 3 3 4 6 4 1 2 2 2 1 5 6 9 10 11 12 12 11 11 11 10 12 12 10 8 6 8 9 8 10 10 11 11 10 8 4 4 6 5 4 2 2 1 2 2
0 2 3 1 2 3 4 4 3 1 1 4 4 2 2 4 5 6 8 9 11 12 12 12 10 11 11 10 7 6 6 7 8 9 9 10 11 11 9 5 5 5 4 3 2 2 2 2 2
2 2 3 3 2 3 3 3 3 1 2 3 4 4 3 4 6 5 6 8 9 9 10 10 9 9 9 7 6 5 4 4 5 7 8 10 10 10 9 5 5 5 3 2 2 2 1 1 2
2 2 2 2 2 3 3 4 4 3 3 4 4 4 5 5 3 4 5 7 8 9 9 10 9 8 7 6 6 6 5 4 3 4 6 8 9 9 8 4 4 4 3 3 3 2 1 1 0
2 1 1 1 1 2 1 4 5 5 5 6 6 7 6 5 4 4 5 6 8 9 10 10 10 9 9 7 6 4 4 4 3 3 4 6 7 7 7 5 4 4 3 3 3 2 2 1 1
2 3 3 2 1 1 2 3 5 5 4 6 8 8 7 7 7 5 5 6 7 9 11 10 10 10 9 8 5 4 3 3 3 3 3 4 7 7 6 6 5 4 4 3 3 2 3 2 0
2 3 4 3 3 1 2 2 4 4 5 8 9 8 8 7 7 6 6 6 7 8 8 9 10 10 11 10 9 9 7 7 7 5 5 4 5 6 7 6 6 4 3 4 3 2 2 2 1
1 1 2 2 2 2 1 1 5 2 5 8 8 8 7 7 7 7 7 7 7 6 6 7 8 9 9 10 10 10 8 6 4 4 6 5 4 5 6 6 5 4 3 3 3 3 2 2 2
1 4 4 2 2 1 2 3 4 4 6 6 5 5 5 6 6 5 4 4 4 4 5 5 6 7 7 9 10 11 11 9 8 7 7 5 4 3 5 6 5 5 4 4 3 3 3 2 1
3 3 2 2 1 2 1 2 5 5 5 5 6 6 5 4 4 3 3 3 3 4 4 4 5 6 6 7 8 9 10 11 11 10 8 7 5 4 5 5 5 4 4 4 4 3 3 2 2
1 2 4 3 2 1 1 2 5 5 4 3 3 2 2 2 2 2 2 2 2 3 4 4 5 5 5 6 6 6 7 7 6 8 7 8 6 5 6 6 5 5 5 4 4 3 2 2 2
3 1 1 3 2 1 2 4 6 5 7 6 5 4 3 3 2 2 2 1 0 1 2 3 4 4 4 5 5 4 5 5 6 6 6 5 6 6 7 7 6 5 5 4 4 3 3 3 2
2 3 3 3 2 1 2 3 4 8 8 8 7 6 5 5 5 5 4 3 2 1 1 1 2 3 3 3 4 4 5 5 6 6 7 7 7 7 8 7 7 6 5 4 4 3 3 3 2
2 2 3 3 2 3 1 3 3 4 5 5 6 6 5 5 5 5 4 3 3 3 2 1 1 2 2 3 4 5 5 5 6 6 6 7 7 8 8 7 7 6 5 4 4 3 4 3 2
1 2 3 3 1 2 2 3 5 3 3 4 6 7 7 7 6 5 5 5 4 3 3 2 1 1 2 3 4 5 5 6 6 6 7 7 8 7 7 7 7 6 5 5 4 4 4 4 3
Wind_Direction
317 337 15 72 105 187 222 224 213 202 193 188 180 149 144 161 182 222 94 139 136 144 149 147 146 144 141 137 132 128 125 122 120 119 120 121 120 119 117 116 114 113 112 112 110 106 102 98 96
324 340 44 117 185 211 222 213 217 213 190 136 94 114 104 123 107 110 133 142 140 143 145 146 145 145 143 139 135 132 130 127 124 122 120 120 120 119 118 116 115 114 113 112 109 106 102 98 96
320 286 178 181 206 213 216 206 218 226 203 152 109 37 141 162 136 136 144 143 137 138 141 146 145 146 144 143 139 136 133 130 127 125 123 121 121 120 119 117 116 115 114 113 110 106 102 97 95
52 97 186 214 219 216 215 216 204 198 190 180 152 217 219 124 148 137 140 141 135 134 139 146 146 146 146 146 143 140 137 134 131 129 127 125 124 122 120 118 118 117 117 116 112 107 101 96 96
86 159 205 225 227 226 225 230 210 192 183 186 162 179 260 348 121 128 138 143 140 137 140 147 147 148 149 148 146 143 142 138 135 134 131 129 127 125 124 123 122 122 121 119 114 108 101 95 95
136 178 208 220 225 229 230 221 219 213 205 197 167 169 199 122 131 136 139 142 143 142 140 147 149 149 150 150 148 146 146 143 140 138 136 134 133 131 130 129 128 126 125 121 116 108 101 94 93
175 190 218 216 222 229 227 207 198 213 208 200 172 156 157 155 143 137 136 138 140 140 138 141 146 149 151 151 148 149 149 146 144 141 139 138 138 137 137 135 133 131 128 124 118 110 101 93 87
183 195 216 211 215 228 222 201 209 209 217 189 167 168 174 165 143 133 134 138 143 143 141 138 141 144 146 150 149 150 149 147 146 143 139 139 140 140 140 140 139 136 132 126 119 110 96 81 71
179 223 221 210 210 222 205 198 235 232 180 173 187 187 161 141 139 136 139 143 154 154 147 143 142 142 143 148 152 150 150 149 145 144 143 140 140 141 141 144 143 140 138 131 121 104 82 66 52
184 220 227 223 218 218 196 202 199 185 193 193 169 119 133 142 148 152 156 163 168 166 161 155 151 149 147 150 150 149 150 149 147 147 147 146 146 146 146 151 151 150 145 135 115 72 50 44 25
202 223 248 266 270 247 213 243 235 178 208 199 186 163 152 153 158 162 170 172 176 174 169 167 162 158 154 149 151 152 151 149 151 155 156 153 150 148 147 151 159 161 160 140 41 23 13 360 344
224 247 252 270 293 292 222 228 249 225 239 248 212 175 163 165 168 170 176 182 175 180 181 173 167 165 163 158 159 159 160 161 162 166 166 161 158 161 166 174 184 188 194 206 263 301 312 316 315
237 256 256 270 299 304 261 238 238 255 289 288 178 168 172 174 176 175 176 176 176 183 190 181 173 170 169 163 164 170 173 174 174 174 177 176 173 177 183 191 200 210 215 219 231 257 292 306 310
228 249 265 269 277 296 266 259 234 271 312 354 160 179 179 179 178 176 177 176 182 189 194 186 178 174 171 169 168 172 178 178 178 184 189 189 189 188 189 194 204 214 218 221 223 235 265 284 292
247 243 282 265 250 263 283 275 237 277 333 11 274 197 184 179 180 184 185 183 187 188 191 191 185 177 174 175 176 177 181 180 184 192 196 197 199 196 191 189 203 218 216 212 213 230 243 265 271
231 188 220 247 193 208 167 238 273 321 2 319 309 256 196 187 189 191 189 182 185 184 188 191 191 184 180 178 176 177 180 182 188 192 195 199 201 197 185 184 203 210 198 190 185 191 212 250 269
152 181 197 251 189 179 175 227 263 288 257 284 302 318 250 204 203 200 194 188 187 187 188 187 189 189 186 177 172 173 177 183 189 188 190 196 196 192 183 185 197 188 173 173 182 175 185 233 271
190 190 187 196 193 159 181 237 277 283 234 262 291 307 290 235 217 211 203 198 192 188 186 187 191 191 183 175 163 163 170 183 186 188 189 189 189 186 180 178 180 171 156 162 165 174 179 220 268
178 173 178 224 206 167 199 241 260 264 272 271 271 277 275 266 238 210 210 204 194 188 187 188 187 187 180 180 177 178 186 183 185 188 185 186 183 180 175 168 161 158 163 166 163 156 171 235 272
198 175 187 293 204 170 185 267 270 252 235 243 248 253 252 254 245 218 204 198 194 191 192 192 193 189 190 193 183 177 167 160 172 164 161 175 179 179 174 163 164 161 154 145 145 147 157 191 107
240 211 210 182 107 56 96 297 264 262 238 245 244 241 238 232 234 226 213 204 196 198 196 198 197 196 195 190 167 141 120 115 150 166 167 175 175 173 168 161 151 152 151 156 157 159 163 183 182
230 227 207 175 131 102 136 265 275 253 261 250 247 245 241 237 232 228 217 217 208 210 199 194 194 196 198 188 181 180 184 197 199 184 174 169 162 156 156 148 144 146 147 146 147 141 143 150 190
204 175 141 130 118 84 99 152 291 285 259 253 246 244 244 242 233 231 220 219 214 205 193 191 194 196 196 192 189 189 197 203 187 162 159 158 148 143 141 141 138 135 133 134 128 125 124 146 173
139 74 62 48 71 46 223 166 283 244 233 254 255 249 248 248 241 241 235 217 210 192 182 179 186 199 195 194 191 193 195 192 183 180 177 168 157 142 137 131 130 129 133 137 133 126 130 136 150
75 93 75 47 53 263 183 162 258 269 263 248 255 261 262 254 243 248 242 217 192 179 180 178 184 195 191 190 194 197 195 191 192 187 182 172 170 169 160 144 139 132 129 124 120 120 123 128 145
155 133 147 153 170 309 58 236 271 299 310 296 270 271 286 289 256 253 254 232 205 175 168 171 184 190 183 184 189 191 187 186 189 183 176 175 171 162 150 141 135 129 126 124 123 121 131 131 138
118 114 155 114 89 71 310 307 316 355 14 24 31 34 12 348 337 324 331 343 335 155 167 173 180 183 180 177 167 166 168 169 168 159 152 148 144 142 143 140 134 129 128 129 126 125 130 130 130
107 135 91 98 121 110 337 328 318 337 354 6 19 20 6 6 12 6 358 360 8 34 73 116 150 164 163 158 157 154 153 151 150 149 150 146 143 141 143 141 136 132 128 127 123 125 128 129 133
60 70 87 90 105 135 109 307 304 303 335 4 8 12 15 17 12 5 1 8 18 34 49 73 113 136 145 147 144 140 140 138 138 141 143 141 139 143 145 142 138 137 135 130 128 135 140 142 137
160 156 136 127 124 117 132 289 327 335 353 31 23 20 18 20 15 13 13 20 24 21 17 13 24 143 159 152 147 146 140 138 138 140 141 140 140 140 140 139 138 140 139 139 144 153 149 150 151
Height
1498 1499 1501 1504 1507 1511 1509 1503 1497 1496 1495 1494 1495 1495 1496 1499 1502 1506 1500 1499 1503 1507 1512 1516 1519 1521 1523 1525 1527 1529 1531 1533 1534 1536 1538 1540 1542 1544 1546 1547 1549 1550 1551 1552 1553 1554 1555 1556 1556
1495 1498 1501 1501 1504 1507 1504 1496 1495 1492 1490 1491 1493 1494 1495 1496 1497 1498 1497 1500 1504 1508 1512 1516 1519 1521 1524 1526 1528 1530 1532 1534 1536 1538 1540 1542 1543 1545 1547 1549 1550 1551 1553 1554 1555 1556 1557 1558 1558
1493 1495 1498 1498 1498 1497 1496 1491 1489 1488 1489 1489 1492 1493 1494 1495 1496 1497 1498 1501 1505 1509 1513 1516 1519 1522 1524 1526 1528 1530 1533 1535 1537 1539 1541 1543 1545 1546 1548 1550 1551 1553 1554 1555 1556 1557 1558 1559 1560
1492 1494 1496 1496 1491 1489 1488 1485 1485 1487 1488 1488 1491 1493 1493 1495 1496 1497 1499 1502 1506 1509 1513 1516 1519 1522 1524 1527 1529 1531 1533 1535 1538 1540 1542 1544 1546 1547 1549 1551 1553 1554 1555 1557 1558 1559 1560 1561 1562
1489 1491 1493 1490 1488 1485 1484 1483 1484 1485 1485 1487 1489 1491 1492 1494 1494 1497 1499 1503 1506 1510 1514 1517 1520 1522 1525 1527 1530 1532 1534 1536 1539 1541 1543 1545 1547 1548 1550 1552 1554 1555 1557 1558 1559 1560 1561 1562 1563
1488 1488 1489 1487 1486 1483 1482 1481 1482 1483 1484 1485 1487 1489 1491 1493 1494 1497 1500 1504 1508 1511 1514 1517 1520 1523 1525 1528 1530 1532 1535 1537 1539 1541 1543 1546 1548 1549 1551 1553 1555 1556 1558 1559 1560 1561 1562 1563 1563
1486 1486 1484 1483 1483 1481 1479 1479 1480 1481 1482 1483 1485 1488 1490 1493 1494 1497 1501 1504 1509 1512 1514 1517 1520 1523 1526 1528 1531 1533 1535 1538 1540 1542 1544 1546 1548 1550 1552 1554 1556 1557 1559 1560 1561 1562 1563 1563 1564
1482 1484 1482 1481 1480 1478 1475 1477 1477 1479 1480 1481 1483 1485 1487 1490 1494 1496 1501 1505 1508 1512 1515 1518 1520 1523 1526 1529 1531 1533 1536 1538 1540 1543 1545 1547 1549 1551 1553 1555 1556 1558 1559 1560 1561 1562 1563 1564 1564
1480 1483 1479 1477 1477 1474 1473 1475 1476 1477 1478 1479 1480 1482 1484 1487 1492 1496 1500 1504 1508 1512 1515 1518 1520 1523 1526 1529 1531 1534 1536 1538 1541 1543 1545 1548 1550 1552 1553 1555 1557 1558 1559 1560 1561 1562 1563 1563 1564
1479 1479 1474 1472 1472 1472 1471 1472 1474 1475 1476 1477 1479 1481 1483 1486 1490 1494 1497 1502 1506 1510 1514 1517 1520 1523 1526 1528 1531 1533 1536 1538 1541 1543 1546 1548 1550 1552 1553 1555 1556 1558 1559 1560 1561 1562 1562 1563 1563
1475 1475 1472 1471 1470 1470 1470 1472 1472 1474 1476 1475 1477 1479 1482 1485 1489 1492 1496 1500 1504 1508 1512 1516 1519 1522 1525 1528 1531 1533 1536 1538 1541 1543 1546 1548 1550 1551 1553 1555 1556 1557 1558 1559 1560 1561 1562 1562 1563
1474 1472 1471 1471 1470 1469 1469 1471 1472 1473 1474 1474 1475 1477 1478 1482 1485 1490 1495 1499 1502 1507 1511 1514 1518 1521 1524 1527 1530 1532 1535 1538 1540 1543 1545 1547 1549 1551 1552 1554 1555 1556 1558 1559 1559 1560 1561 1561 1562
1472 1470 1471 1470 1469 1469 1469 1470 1471 1471 1471 1471 1473 1475 1477 1479 1483 1487 1492 1497 1500 1504 1508 1513 1516 1519 1523 1526 1529 1532 1534 1537 1539 1542 1544 1546 1548 1550 1552 1553 1554 1555 1556 1557 1558 1559 1559 1560 1560
1470 1470 1470 1469 1469 1469 1470 1469 1471 1470 1470 1470 1471 1473 1476 1478 1480 1484 1489 1494 1498 1501 1506 1510 1513 1518 1521 1524 1527 1530 1533 1536 1538 1541 1543 1545 1547 1549 1550 1552 1553 1554 1555 1556 1557 1557 1558 1558 1558
1469 1470 1469 1468 1468 1469 1470 1470 1469 1470 1470 1469 1470 1472 1474 1477 1480 1482 1486 1490 1494 1499 1503 1507 1511 1515 1519 1522 1525 1528 1531 1534 1537 1539 1542 1544 1546 1548 1549 1550 1552 1553 1553 1554 1555 1555 1556 1556 1556
1469 1470 1471 1468 1467 1468 1472 1471 1468 1469 1469 1470 1471 1471 1473 1476 1478 1481 1484 1488 1492 1496 1500 1505 1509 1512 1515 1519 1523 1526 1529 1532 1535 1537 1540 1542 1544 1546 1547 1549 1550 1551 1551 1552 1553 1553 1553 1554 1554
1470 1471 1471 1468 1466 1467 1469 1469 1468 1468 1469 1470 1470 1470 1471 1474 1477 1479 1482 1486 1489 1493 1497 1502 1506 1510 1513 1517 1520 1524 1527 1530 1532 1535 1537 1540 1542 1544 1545 1546 1548 1549 1549 1550 1550 1551 1551 1551 1551
1472 1471 1469 1469 1466 1466 1468 1468 1467 1467 1468 1469 1470 1470 1471 1473 1476 1478 1481 1484 1487 1491 1495 1499 1503 1507 1510 1514 1516 1521 1524 1527 1529 1532 1535 1537 1539 1541 1543 1544 1545 1546 1547 1547 1548 1548 1548 1548 1548
1469 1469 1469 1468 1465 1467 1467 1467 1466 1466 1467 1468 1469 1470 1470 1471 1474 1476 1479 1482 1485 1488 1492 1496 1500 1503 1507 1510 1512 1516 1519 1523 1526 1529 1531 1534 1536 1538 1540 1541 1542 1543 1544 1545 1545 1546 1546 1545 1545
1468 1469 1468 1467 1464 1466 1467 1467 1465 1464 1465 1466 1467 1468 1468 1470 1472 1474 1477 1479 1482 1486 1489 1493 1497 1500 1504 1507 1509 1513 1516 1519 1523 1525 1528 1530 1533 1535 1536 1538 1539 1540 1541 1542 1542 1542 1542 1542 1542
1468 1469 1468 1467 1466 1466 1467 1469 1466 1463 1462 1462 1464 1465 1465 1467 1469 1472 1474 1477 1480 1483 1486 1489 1492 1496 1500 1503 1507 1510 1512 1515 1518 1521 1524 1527 1529 1531 1533 1534 1536 1537 1538 1538 1539 1539 1539 1539 1539
1468 1466 1466 1466 1469 1472 1470 1474 1467 1463 1461 1460 1460 1460 1461 1463 1466 1469 1472 1475 1477 1480 1483 1486 1489 1493 1496 1499 1502 1505 1507 1511 1514 1517 1520 1523 1525 1527 1529 1530 1532 1533 1534 1535 1535 1535 1535 1535 1535
1466 1464 1465 1467 1469 1472 1472 1474 1468 1463 1461 1458 1457 1457 1458 1461 1464 1467 1470 1472 1475 1477 1480 1483 1486 1489 1492 1494 1497 1500 1504 1507 1510 1513 1516 1518 1521 1523 1525 1526 1527 1529 1530 1531 1531 1531 1531 1531 1531
1465 1466 1467 1469 1471 1474 1472 1474 1470 1464 1459 1456 1455 1456 1457 1459 1461 1463 1466 1469 1471 1474 1477 1479 1482 1485 1488 1491 1494 1497 1500 1503 1505 1508 1511 1513 1516 1518 1520 1522 1523 1524 1525 1526 1527 1527 1527 1527 1527
1467 1471 1475 1475 1476 1476 1472 1473 1469 1458 1456 1455 1455 1454 1455 1457 1459 1461 1463 1466 1468 1471 1473 1476 1479 1482 1485 1488 1490 1493 1496 1499 1501 1504 1506 1509 1511 1513 1515 1517 1519 1520 1521 1522 1522 1522 1522 1522 1522
1469 1471 1477 1477 1476 1477 1473 1474 1466 1458 1455 1454 1454 1454 1455 1456 1458 1460 1462 1465 1467 1469 1472 1474 1477 1480 1482 1484 1487 1490 1492 1495 1497 1500 1502 1504 1506 1509 1510 1512 1514 1516 1517 1517 1518 1518 1518 1518 1518
1469 1472 1472 1476 1477 1478 1476 1473 1464 1456 1456 1455 1454 1454 1454 1456 1457 1459 1461 1463 1465 1468 1470 1473 1475 1477 1479 1481 1483 1486 1488 1491 1493 1495 1497 1499 1502 1504 1506 1508 1510 1512 1512 1513 1513 1514 1514 1514 1513
1468 1470 1475 1477 1477 1477 1476 1475 1473 1463 1461 1458 1457 1456 1456 1456 1458 1459 1461 1462 1464 1467 1469 1471 1473 1475 1477 1479 1481 1483 1485 1487 1489 1491 1493 1495 1498 1500 1502 1504 1506 1507 1508 1508 1509 1509 1509 1509 1508
1471 1472 1474 1479 1478 1481 1478 1478 1469 1467 1464 1462 1460 1459 1458 1458 1459 1461 1462 1463 1465 1466 1468 1469 1471 1473 1474 1476 1478 1479 1481 1483 1485 1487 1489 1491 1494 1496 1498 1500 1501 1503 1503 1504 1504 1505 1504 1504 1503
1471 1471 1474 1478 1482 1486 1485 1481 1467 1466 1465 1464 1462 1461 1461 1461 1462 1462 1463 1464 1464 1465 1467 1468 1469 1471 1472 1473 1475 1476 1478 1479 1481 1483 1485 1487 1490 1492 1494 1495 1497 1498 1499 1500 1500 1500 1500 1499 1499